This demonstration page uses our WeatherBlox Daily Observations layout. Learn more.

Left ArrowRight Arrow

Hourly Observations for July 6, 2015

Temp ( °F °C ) Dew Point ( °F °C ) Humidity (%) Winds ( mph kmh ) Pressure ( in mb ) Visibility ( mi km ) Precip ( " mm )
12:15 am 00:15 Partly Cloudy with Light Rain 75 24 73 23 94 94 S 8 13 30.12 1020 7 11.26538 0 0
12:35 am 00:35 Partly Cloudy with Light Rain 73 23 73 23 100 100 SSW 10 17 30.12 1020 7 11.26538 0 0
12:55 am 00:55 Partly Cloudy with Drizzle 73 23 73 23 100 100 SSW 8 13 30.12 1020 7 11.26538 0 0
1:15 am 01:15 Mostly Cloudy 73 23 73 23 100 100 SSW 10 17 30.12 1020 7 11.26538 0 0
1:35 am 01:35 Cloudy with Light Rain 73 23 73 23 100 100 SSW 7 11 30.12 1020 5 8.0467 0 0
1:55 am 01:55 Mostly Cloudy with Drizzle 73 23 73 23 100 100 SSW 7 11 30.12 1020 5 8.0467 0.01 0.254
2:15 am 02:15 Mostly Cloudy with Drizzle 73 23 73 23 100 100 Calm 30.12 1020 5 8.0467 0 0
2:35 am 02:35 Cloudy with Light Rain 73 23 73 23 100 100 E 3 6 30.12 1020 4 6.43736 0 0
2:55 am 02:55 Cloudy with Mist and Fog 72 22 72 22 100 100 Calm 30.12 1020 5 8.0467 0 0
3:15 am 03:15 Cloudy with Mist and Fog 72 22 72 22 100 100 ENE 3 6 30.12 1020 4 6.43736 0 0
3:35 am 03:35 Cloudy with Mist and Fog 72 22 72 22 100 100 Calm 30.12 1020 4 6.43736 0 0
3:55 am 03:55 Cloudy with Mist and Fog 72 22 72 22 100 100 E 3 6 30.12 1020 4 6.43736 0 0
4:15 am 04:15 Cloudy with Mist and Fog 72 22 72 22 100 100 ESE 6 9 30.12 1020 5 8.0467 0 0
4:35 am 04:35 Cloudy with Mist and Fog 72 22 72 22 100 100 SE 3 6 30.12 1020 5 8.0467 0 0
4:55 am 04:55 Cloudy with Mist and Fog 72 22 72 22 100 100 Calm 30.12 1020 4 6.43736 0 0
5:15 am 05:15 Cloudy with Mist and Fog 72 22 72 22 100 100 E 3 6 30.12 1020 4 6.43736 0 0
5:35 am 05:35 Cloudy with Light Rain 72 22 72 22 100 100 Calm 30.12 1020 4 6.43736 0 0
5:55 am 05:55 Cloudy with Mist and Fog 73 23 73 23 100 100 SSW 7 11 30.12 1020 4 6.43736 0 0
6:15 am 06:15 Cloudy with Mist and Fog 73 23 73 23 100 100 SE 3 6 30.12 1020 2.5 4.02335 0 0
6:35 am 06:35 Cloudy with Mist and Fog 73 23 73 23 100 100 ESE 5 7 30.12 1020 2.5 4.02335 0 0
6:55 am 06:55 Cloudy with Mist and Fog 73 23 73 23 100 100 SE 6 9 30.12 1020 3 4.82802 0 0
7:15 am 07:15 Cloudy with Mist and Fog 73 23 73 23 100 100 SE 5 7 30.12 1020 4 6.43736 0 0
7:35 am 07:35 Cloudy with Mist and Fog 73 23 73 23 100 100 SE 5 7 30.12 1020 4 6.43736 0 0
7:55 am 07:55 Cloudy with Mist and Fog 73 23 73 23 100 100 S 7 11 30.12 1020 5 8.0467 0 0
8:15 am 08:15 Cloudy 73 23 73 23 100 100 SE 9 15 30.12 1020 7 11.26538 0 0
8:35 am 08:35 Cloudy 75 24 73 23 94 94 SSE 12 19 30.12 1020 10 16.0934 0 0
8:55 am 08:55 Mostly Cloudy 77 25 73 23 89 89 SSE 12 19 30.12 1020 10 16.0934 0 0
9:15 am 09:15 Cloudy 77 25 73 23 89 89 S 12 19 30.12 1020 10 16.0934 0 0
9:35 am 09:35 Cloudy 79 26 73 23 84 84 SE 12 19 30.12 1020 10 16.0934 0 0
9:55 am 09:55 Cloudy 79 26 73 23 84 84 S 15 24 30.12 1020 10 16.0934 0 0
10:15 am 10:15 Cloudy 77 25 73 23 89 89 S 10 17 30.12 1020 10 16.0934 0 0
10:35 am 10:35 Cloudy 79 26 73 23 84 84 SSW 9 15 30.12 1020 10 16.0934 0 0
10:55 am 10:55 Mostly Cloudy 79 26 73 23 84 84 SSW 12 19 30.12 1020 10 16.0934 0 0
11:15 am 11:15 Cloudy 79 26 73 23 84 84 S 13 20 30.12 1020 10 16.0934 0 0
11:35 am 11:35 Cloudy 81 27 73 23 79 79 SSW 10 17 30.12 1020 10 16.0934 0 0
11:55 am 11:55 Partly Cloudy 81 27 73 23 79 79 S 13 20 30.12 1020 10 16.0934 0 0
12:15 pm 12:15 Partly Cloudy 82 28 73 23 74 74 SSE 13 20 30.12 1020 10 16.0934 0 0
12:35 pm 12:35 Partly Cloudy 82 28 72 22 70 70 S 15 24 30.12 1020 10 16.0934 0 0
12:55 pm 12:55 Mostly Cloudy 81 27 73 23 79 79 S 15 24 30.12 1020 10 16.0934 0 0
1:15 pm 13:15 Mostly Cloudy 82 28 73 23 74 74 S 13 20 30.09 1019 10 16.0934 0 0
1:35 pm 13:35 Mostly Cloudy 84 29 73 23 70 70 S 17 28 30.09 1019 10 16.0934 0 0
1:55 pm 13:55 Mostly Cloudy 84 29 73 23 70 70 S 13 20 30.09 1019 10 16.0934 0 0
2:15 pm 14:15 Partly Cloudy 86 30 72 22 62 62 S 13 20 30.09 1019 10 16.0934 0 0
2:35 pm 14:35 Mostly Cloudy 86 30 72 22 62 62 S 14 22 30.06 1018 10 16.0934 0 0
2:55 pm 14:55 undefined N/A N/A N/A undefined N/A N/A N/A 0 0
3:15 pm 15:15 undefined N/A N/A N/A undefined N/A N/A N/A 0 0
3:35 pm 15:35 Mostly Cloudy 86 30 72 22 62 62 S 14 22 30.06 1018 10 16.0934 0 0
3:55 pm 15:55 undefined N/A N/A N/A undefined N/A N/A N/A 0 0
4:15 pm 16:15 Cloudy with Light Rain 79 26 77 25 94 94 SSW 9 15 30.06 1018 7 11.26538 0.03 0.762
4:35 pm 16:35 Partly Cloudy 81 27 79 26 94 94 S 15 24 30.06 1018 10 16.0934 0.04 1.016
4:55 pm 16:55 Partly Cloudy 81 27 77 25 89 89 SSW 14 22 30.06 1018 10 16.0934 0.04 1.016
5:15 pm 17:15 Mostly Cloudy 79 26 77 25 94 94 W 5 7 30.06 1018 10 16.0934 0 0
5:35 pm 17:35 Partly Cloudy 82 28 77 25 84 84 SW 9 15 30.03 1017 10 16.0934 0 0
5:55 pm 17:55 Partly Cloudy 82 28 77 25 84 84 SW 8 13 30.03 1017 10 16.0934 0 0
6:15 pm 18:15 Partly Cloudy 84 29 77 25 79 79 SE 9 15 30.03 1017 10 16.0934 0 0
6:35 pm 18:35 Partly Cloudy 81 27 73 23 79 79 SE 6 9 30.03 1017 10 16.0934 0 0
6:55 pm 18:55 Sunny 81 27 73 23 79 79 SE 6 9 30.03 1017 10 16.0934 0 0
7:15 pm 19:15 Partly Cloudy 82 28 73 23 74 74 SSE 7 11 30.03 1017 10 16.0934 0 0
7:35 pm 19:35 Partly Cloudy 81 27 73 23 79 79 S 7 11 30.03 1017 10 16.0934 0 0
7:55 pm 19:55 Sunny 81 27 73 23 79 79 SSW 12 19 30.03 1017 10 16.0934 0 0
8:15 pm 20:15 Sunny 79 26 73 23 84 84 SSW 8 13 30.03 1017 10 16.0934 0 0
8:35 pm 20:35 Sunny 79 26 73 23 84 84 S 5 7 30.03 1017 10 16.0934 0 0
8:55 pm 20:55 Partly Cloudy 79 26 75 24 89 89 ESE 8 13 30.03 1017 10 16.0934 0 0
9:15 pm 21:15 Clear 77 25 75 24 94 94 Calm 30.03 1017 10 16.0934 0 0
9:35 pm 21:35 Clear 77 25 75 24 94 94 Calm 30.03 1017 10 16.0934 0 0
9:55 pm 21:55 Clear 77 25 75 24 94 94 ESE 8 13 30.03 1017 10 16.0934 0 0
10:15 pm 22:15 Clear 77 25 73 23 89 89 SSW 10 17 30.03 1017 10 16.0934 0 0
10:35 pm 22:35 Clear 73 23 73 23 100 100 WSW 5 7 30.03 1017 7 11.26538 0 0
10:55 pm 22:55 Clear 75 24 73 23 94 94 SW 12 19 30.03 1017 10 16.0934 0 0
11:15 pm 23:15 Clear 73 23 73 23 100 100 SSW 8 13 30.03 1017 10 16.0934 0 0
11:35 pm 23:35 Clear 75 24 73 23 94 94 SSW 8 13 30.03 1017 10 16.0934 0 0
11:55 pm 23:55 Clear 73 23 73 23 100 100 SSW 9 15 30.03 1017 10 16.0934 0 0

Powered by AerisWeather